Powrót do katalogu

GARAI-B

AktywnyNaukaSSO
NORAD 68463·PAYLOAD·🇸🇪 Sweden

Wystrzelony Mar 30, 2026 z Vandenberg Space Force Base

Loading…

Następne Przeloty (najbliższe 24 godziny)

TLE

ŚwieżeSource: Space-Track

Epoka: Sep 13, 2026, 21:29 UTC

1 68463U 26067AZ  26256.89523156  .00003552  00000-0  19674-3 0  9993
2 68463  97.4627 213.8499 0004787 110.5358 249.6389 15.14443835 25386

Śledź GARAI-B w czasie rzeczywistym z AllMySat

Download on the App Store